Weather History for Naples, FL

Change the Weather History Date:

Sunday, February 19, 2012

  Actual Average Record
Temperature  
Mean Temperature 75 °F 68 °F  
Max Temperature 81 °F 78 °F 87 °F (1997)
Min Temperature 68 °F 57 °F 37 °F (1958)
Degree Days  
Heating Degree Days 0 2  
Month to date heating degree days 22 38  
Since 1 July heating degree days 119 218  
Cooling Degree Days 10 4  
Month to date cooling degree days 113 66  
Year to date cooling degree days 198 152  
Growing Degree Days 24 (Base 50)    
Moisture  
Dew Point 69 °F    
Average Humidity 84    
Maximum Humidity 93    
Minimum Humidity 74    
Precipitation  
Precipitation T in 0.07 in 2.62 in (1981)
Month to date precipitation 0.56 1.46  
Year to date precipitation 0.73 3.31  
Snow  
Snow 0.00 in - - ()
Month to date snowfall 0.0  
Since 1 July snowfall 0.0  
Snow Depth 0.00 in    
Sea Level Pressure  
Sea Level Pressure 29.92 in    
Wind  
Wind Speed 13 mph (SW)    
Max Wind Speed 22 mph    
Max Gust Speed 29 mph    
Visibility 8 miles    
Events Rain    
T = Trace of Precipitation, MM = Missing Value Source: NWS Daily Summary

Daily Weather History Graph

Daily Weather History Graph

Search for Another Location

Airport:

Trip Planner

Search our weather history database for the weather conditions in past years. The results will help you decide how hot, cold, wet, or windy it might be!

Date:

Astronomy

Feb. 19, 2012 Rise Set
Actual Time 6:59 AM EST 6:22 PM EST
Civil Twilight 6:36 AM EST 6:45 PM EST
Nautical Twilight 6:09 AM EST 7:12 PM EST
Astronomical Twilight 5:42 AM EST 7:39 PM EST
Moon 5:10 AM EST (2/19) 4:29 PM EST (2/19)
Length of Visible Light 12h 09m
Length of Day
11h 22m
Waning Crescent, 5% of the Moon is Illuminated
Feb 19
Waning Crescent
Feb 21
New
Feb 29
First Quarter
Mar 8
Full
Mar 14
Last Quarter

Hourly Weather History & Observations

Time (EST) Temp. Heat Index Dew Point Humidity Pressure Visibility Wind Dir Wind Speed Gust Speed Precip Events Conditions
12:53 AM 71.1 °F - 68.0 °F 90% 29.93 in 10.0 mi SSE 9.2 mph - N/A   Clear
1:53 AM 71.1 °F - 68.0 °F 90% 29.92 in 10.0 mi South 6.9 mph - N/A   Clear
2:53 AM 71.1 °F - 69.1 °F 93% 29.90 in 10.0 mi SSE 9.2 mph - N/A   Clear
3:53 AM 71.1 °F - 69.1 °F 93% 29.90 in 10.0 mi South 5.8 mph - N/A   Clear
4:46 AM 71.6 °F - 69.8 °F 94% 29.92 in 10.0 mi South 10.4 mph - N/A   Mostly Cloudy
4:53 AM 72.0 °F - 70.0 °F 93% 29.92 in 10.0 mi South 8.1 mph - N/A   Mostly Cloudy
5:42 AM 71.6 °F - 69.8 °F 94% 29.92 in 9.0 mi South 5.8 mph - N/A   Overcast
5:53 AM 71.1 °F - 69.1 °F 93% 29.92 in 9.0 mi South 6.9 mph - N/A   Mostly Cloudy
6:53 AM 71.1 °F - 70.0 °F 96% 29.93 in 9.0 mi South 8.1 mph - N/A   Scattered Clouds
7:53 AM 73.0 °F - 71.1 °F 93% 29.94 in 6.0 mi SSW 8.1 mph - N/A   Partly Cloudy
8:53 AM 75.0 °F - 72.0 °F 90% 29.94 in 8.0 mi South 11.5 mph - N/A   Partly Cloudy
9:53 AM 78.1 °F - 71.1 °F 79% 29.96 in 9.0 mi South 16.1 mph - N/A   Partly Cloudy
10:53 AM 79.0 °F - 71.1 °F 77% 29.96 in 10.0 mi SSW 16.1 mph 25.3 mph N/A   Partly Cloudy
11:53 AM 80.1 °F 83.6 °F 71.1 °F 74% 29.95 in 10.0 mi SSW 17.3 mph - N/A   Partly Cloudy
12:53 PM 80.1 °F 83.6 °F 71.1 °F 74% 29.93 in 10.0 mi SSW 20.7 mph 25.3 mph N/A   Partly Cloudy
1:53 PM 80.1 °F 83.6 °F 71.1 °F 74% 29.91 in 10.0 mi SSW 20.7 mph 27.6 mph N/A   Clear
2:53 PM 79.0 °F - 72.0 °F 79% 29.90 in 10.0 mi SSW 19.6 mph 27.6 mph N/A   Scattered Clouds
3:53 PM 79.0 °F - 72.0 °F 79% 29.88 in 10.0 mi SSW 17.3 mph 28.8 mph N/A   Scattered Clouds
4:53 PM 77.0 °F - 72.0 °F 84% 29.88 in 8.0 mi SSW 19.6 mph - N/A   Overcast
5:43 PM 75.2 °F - 71.6 °F 89% 29.89 in 7.0 mi SW 15.0 mph - N/A   Overcast
5:53 PM 75.0 °F - 72.0 °F 90% 29.89 in 7.0 mi SSW 13.8 mph - N/A   Overcast
6:27 PM 75.2 °F - 71.6 °F 89% 29.90 in 6.0 mi WSW 12.7 mph 23.0 mph 0.00 in Rain Light Rain
6:53 PM 73.0 °F - 69.1 °F 87% 29.91 in 6.0 mi NW 13.8 mph 20.7 mph 0.00 in   Overcast
7:00 PM 73.4 °F - 69.8 °F 88% 29.92 in 7.0 mi NW 12.7 mph 20.7 mph N/A   Overcast
7:12 PM 71.6 °F - 69.8 °F 94% 29.92 in 7.0 mi WNW 11.5 mph - N/A   Overcast
7:19 PM 71.6 °F - 68.0 °F 88% 29.92 in 7.0 mi WNW 13.8 mph 18.4 mph N/A   Overcast
7:53 PM 72.0 °F - 66.9 °F 84% 29.93 in 7.0 mi WNW 12.7 mph - N/A   Overcast
8:08 PM 71.6 °F - 66.2 °F 83% 29.93 in 7.0 mi WNW 9.2 mph - N/A   Overcast
8:34 PM 71.6 °F - 64.4 °F 78% 29.94 in 8.0 mi NW 15.0 mph 21.9 mph N/A   Overcast
8:53 PM 70.0 °F - 64.9 °F 84% 29.95 in 8.0 mi WNW 12.7 mph - N/A   Overcast
9:53 PM 69.8 °F - 64.4 °F 83% 29.96 in 8.0 mi WNW 11.5 mph - N/A   Mostly Cloudy
10:53 PM 69.1 °F - 64.0 °F 84% 29.97 in 9.0 mi WNW 9.2 mph - N/A   Overcast
11:53 PM 69.1 °F - 63.0 °F 81% 29.98 in 9.0 mi WNW 10.4 mph - N/A   Overcast